Weather History for Manchester, NH

Change the Weather History Date:

Saturday, June 15, 2013

  Actual Average Record
Temperature  
Mean Temperature 70 °F -  
Max Temperature 79 °F 77 °F 94 °F (1956)
Min Temperature 60 °F 53 °F 39 °F (1953)
Cooling Degree Days 4    
Growing Degree Days 20 (Base 50)    
Moisture  
Dew Point 43 °F    
Average Humidity 42    
Maximum Humidity 67    
Minimum Humidity 24    
Precipitation  
Precipitation 0.00 in - - ()
Sea Level Pressure  
Sea Level Pressure 29.90 in    
Wind  
Wind Speed 7 mph (WNW)    
Max Wind Speed 14 mph    
Max Gust Speed 24 mph    
Visibility 10 miles    
Events      
Averages and records for this station are not official NWS values.
T = Trace of Precipitation, MM = Missing Value Source: NWS Daily Summary

Daily Weather History Graph

Daily Weather History Graph

Search for Another Location

Airport:

Trip Planner

Search our weather history database for the weather conditions in past years. The results will help you decide how hot, cold, wet, or windy it might be!

Date:

Astronomy

Jun. 15, 2013 Rise Set
Actual Time 5:06 AM EDT 8:26 PM EDT
Civil Twilight 4:30 AM EDT 9:01 PM EDT
Nautical Twilight 3:45 AM EDT 9:47 PM EDT
Astronomical Twilight 2:48 AM EDT 10:44 PM EDT
Moon 11:46 AM EDT (6/15) No Moon Set
Length of Visible Light 16h 30m
Length of Day
15h 20m
Waxing Crescent, 39% of the Moon is Illuminated
Jun 15
Waxing Crescent
Jun 16
First Quarter
Jun 23
Full
Jun 30
Last Quarter
Jul 8
New

Hourly Weather History & Observations

Time (EDT) Temp. Dew Point Humidity Pressure Visibility Wind Dir Wind Speed Gust Speed Precip Events Conditions
12:53 AM 64.9 °F 52.0 °F 63% 29.81 in 10.0 mi NW 6.9 mph - N/A   Clear
1:53 AM 63.0 °F 52.0 °F 67% 29.81 in 10.0 mi North 3.5 mph - N/A   Clear
2:53 AM 63.0 °F 48.9 °F 60% 29.83 in 10.0 mi NNW 6.9 mph - N/A   Clear
3:53 AM 62.1 °F 46.9 °F 58% 29.85 in 10.0 mi Calm Calm - N/A   Clear
4:53 AM 61.0 °F 45.0 °F 56% 29.87 in 10.0 mi NNW 5.8 mph - N/A   Clear
5:53 AM 60.1 °F 44.1 °F 55% 29.90 in 10.0 mi NNW 6.9 mph - N/A   Clear
6:53 AM 62.1 °F 44.1 °F 52% 29.91 in 10.0 mi NNW 8.1 mph - N/A   Clear
7:53 AM 64.0 °F 44.1 °F 48% 29.92 in 10.0 mi NW 10.4 mph - N/A   Clear
8:53 AM 68.0 °F 42.1 °F 39% 29.94 in 10.0 mi NW 10.4 mph - N/A   Clear
9:53 AM 69.1 °F 41.0 °F 36% 29.94 in 10.0 mi WNW 10.4 mph - N/A   Clear
10:53 AM 71.1 °F 39.0 °F 31% 29.95 in 10.0 mi NW 11.5 mph 18.4 mph N/A   Clear
11:53 AM 73.9 °F 39.0 °F 28% 29.94 in 10.0 mi NNW 8.1 mph 18.4 mph N/A   Clear
12:53 PM 75.0 °F 37.0 °F 25% 29.94 in 10.0 mi NNW 10.4 mph 17.3 mph N/A   Clear
1:53 PM 75.9 °F 37.0 °F 24% 29.92 in 10.0 mi Variable 4.6 mph - N/A   Partly Cloudy
2:53 PM 77.0 °F 37.9 °F 24% 29.91 in 10.0 mi West 8.1 mph 18.4 mph N/A   Partly Cloudy
3:53 PM 79.0 °F 39.9 °F 25% 29.89 in 10.0 mi WNW 12.7 mph 18.4 mph N/A   Partly Cloudy
4:53 PM 78.1 °F 39.0 °F 25% 29.89 in 10.0 mi West 13.8 mph 20.7 mph N/A   Partly Cloudy
5:53 PM 78.1 °F 39.0 °F 25% 29.89 in 10.0 mi NW 9.2 mph 24.2 mph N/A   Partly Cloudy
6:53 PM 75.9 °F 39.0 °F 26% 29.90 in 10.0 mi West 8.1 mph - N/A   Partly Cloudy
7:53 PM 73.9 °F 43.0 °F 33% 29.90 in 10.0 mi West 5.8 mph - N/A   Partly Cloudy
8:53 PM 71.1 °F 46.0 °F 41% 29.92 in 10.0 mi SSW 3.5 mph - N/A   Partly Cloudy
9:53 PM 66.0 °F 48.0 °F 52% 29.93 in 10.0 mi South 3.5 mph - N/A   Partly Cloudy
10:53 PM 64.0 °F 48.9 °F 58% 29.94 in 10.0 mi South 3.5 mph - N/A   Clear
11:53 PM 61.0 °F 50.0 °F 67% 29.95 in 10.0 mi SE 3.5 mph - N/A   Clear